Starlink 4750

operational
NORAD ID: 53841 Int'l Des: 2022-114 Owner: SPXS Country: US Constellation: starlink
LEOCIRCULAR

Starlink 4750について

説明を読み込み中...

リアルタイム位置

3D地球を読み込み中...

次回通過

高度履歴

Altitude vs Time

uPlot chart will show altitude changes over time

軌道要素

1 53841U 22114Z 26036.52249931 -.00003550 00000-0 -20510-3 0 9999
2 53841 53.2183 78.6522 0001105 93.6809 266.4310 15.08838462188113
Epoch: Feb 5, 2026 • Age: 18 hours

現在のステータス

高度 548.1 km
速度 7.59 km/s
衛星直下点 -26.86°S, 36.31°E
打ち上げ日 Sep 19, 2022
運用期間 3.3 years
タイプ internet

技術仕様

分類 Payload
質量 305.00 kg
乾燥質量 290.00 kg
総質量 305.00 kg
長さ 0.20 m
直径 2.80 m
スパン 9.00 m
形状 Box + pan
製造者 SPXS
バスタイプ Starlink
フェーズステータス In Orbit
所有者/国 SPXS/US

大規模コンステレーション

Loading constellations...